Location: Bruderhein
(53.8035°N, 112.9265°W)
Time: 11:11:54
(UTC+00:00)

STRAND 1 - Visible Passes

Search period start: 02 April 2023 00:00
Search period end: 12 April 2023 00:00
Orbit: 766 x 780 km, 98.4° (Epoch: 01 April)

Date Brightness Start Highest point End Pass type
(mag) Time Alt. Az. Time Alt. Az. Time Alt. Az.
02 Apr ? 02:55:08 10° NNE 03:00:14 73° WNW 03:05:18 10° SSW visible
02 Apr ? 04:35:29 10° NNW 04:38:37 17° NW 04:41:44 10° W visible
02 Apr ? 11:02:56 10° ENE 11:05:10 13° NE 11:07:25 10° NNE visible
03 Apr ? 04:00:25 10° N 04:04:37 27° WNW 04:08:48 10° WSW visible
03 Apr ? 12:04:38 10° ESE 12:09:07 32° ENE 12:13:35 10° N visible
04 Apr ? 03:25:38 10° N 03:30:28 44° WNW 03:35:17 10° SW visible
04 Apr ? 05:07:11 10° NNW 05:08:27 11° NW 05:09:43 10° WNW visible
04 Apr ? 11:31:29 10° E 11:35:03 20° NE 11:38:39 10° N visible
05 Apr ? 02:51:03 10° NNE 02:56:10 78° WNW 03:01:15 10° SSW visible
05 Apr ? 04:31:19 10° N 04:34:35 18° NW 04:37:52 10° W visible
05 Apr ? 10:59:11 10° ENE 11:01:09 12° NE 11:03:08 10° NNE visible
06 Apr ? 03:56:17 10° N 04:00:34 28° WNW 04:04:51 10° WSW visible
06 Apr ? 12:00:41 10° ESE 12:05:04 30° ENE 12:09:27 10° N visible
07 Apr ? 03:21:31 10° N 03:26:24 47° WNW 03:31:16 10° SW visible
07 Apr ? 05:02:48 10° NNW 05:04:27 11° NW 05:06:05 10° WNW visible
07 Apr ? 11:27:35 10° E 11:31:02 19° NE 11:34:28 10° N visible
08 Apr ? 04:27:08 10° N 04:30:33 18° NW 04:33:59 10° W visible
08 Apr ? 10:55:29 10° ENE 10:57:08 12° NE 10:58:48 10° NNE visible
09 Apr ? 03:52:08 10° N 03:56:31 30° WNW 04:00:53 10° WSW visible
09 Apr ? 11:56:43 10° ESE 12:01:00 28° ENE 12:05:19 10° N visible
10 Apr ? 03:17:23 10° N 03:22:19 50° WNW 03:27:13 10° SW visible
10 Apr ? 04:58:28 10° NNW 05:00:25 12° NW 05:02:21 10° WNW visible
10 Apr ? 11:23:41 10° E 11:26:59 18° NE 11:30:16 10° N visible
11 Apr ? 04:22:56 10° N 04:26:30 19° NW 04:30:04 10° W visible
11 Apr ? 10:51:50 10° ENE 10:53:06 11° NE 10:54:23 10° NNE visible
